Location: Krasnoyarskiy Pitomnik
(51.1333°N, 71.6167°E)
Time: 10:30:16
(UTC+00:00)

Cosmos 2263 Rocket - Pass Details

Date: 22 October 2021
Orbit: 825 x 847 km, 71.0° (Epoch: 06 December)

Event Time Altitude Azimuth Distance (km) Brightness Sun altitude
Rises 13:58:21 0° 324° (NW) 3,375 5.9 -18.2°
Reaches altitude 10° 14:01:02 10° 314° (NW) 2,436 5.3 -18.6°
Maximum altitude 14:05:49 30° 255° (WSW) 1,439 4.1 -19.4°
Drops below altitude 10° 14:10:34 10° 195° (SSW) 2,423 4.7 -20.1°
Sets 14:13:15 0° 185° (S) 3,353 5.3 -20.5°
